GFSNW_sfc_rhum_000.txt.gz
RH
94 95 94 94 94 91 69 52 40 52 54 35 34 41 24 39 23 22 24 22 22 24 25 27 30 32 34 27 26 32 29 36 66 26 24 23 24 28 26 68 56 70 76 49
98 94 93 92 93 92 48 37 44 47 50 59 87 31 27 22 22 21 23 28 27 25 30 39 31 40 36 33 36 43 35 49 63 38 35 28 26 26 25 42 67 64 89 55
98 96 94 91 92 91 54 37 62 36 37 39 36 34 33 34 26 28 25 27 26 30 34 30 37 43 40 37 38 67 53 31 49 55 32 24 30 23 22 27 70 61 58 37
98 98 94 91 92 91 54 38 42 29 82 56 32 29 27 31 35 26 25 28 27 32 47 37 36 37 39 34 56 39 38 61 44 36 27 24 24 25 24 25 32 51 42 32
98 97 92 91 92 96 50 41 40 37 37 36 32 46 30 27 24 29 28 29 28 28 49 33 39 29 28 34 36 36 42 80 82 74 28 27 36 28 26 24 23 26 29 32
96 91 92 91 93 88 39 37 39 36 59 38 44 47 31 27 33 36 22 25 32 54 36 35 35 35 34 32 39 56 81 91 78 80 58 67 87 64 30 26 25 30 54 35
88 91 92 91 92 94 57 46 35 68 74 55 44 33 26 28 32 35 26 26 47 38 33 40 46 45 42 38 42 48 99 96 96 95 92 89 37 26 26 31 27 26 26 35
90 91 92 91 91 93 51 46 48 53 100 55 36 32 29 32 32 36 43 37 34 33 40 80 74 85 87 79 39 47 61 92 95 100 71 53 41 35 40 48 47 32 44 48
90 91 92 91 91 91 59 63 67 47 85 66 28 30 35 59 60 63 58 44 39 39 89 93 98 77 59 63 52 49 63 97 92 96 94 81 60 32 33 37 64 50 55 61
89 90 92 92 90 91 73 65 73 64 64 36 37 41 50 41 52 58 56 66 67 44 95 100 98 72 40 59 86 98 93 93 95 91 93 76 38 33 37 72 77 65 68 64
87 90 91 93 91 90 78 67 64 69 58 50 41 36 40 36 45 78 56 63 74 94 100 100 92 100 78 69 50 77 82 94 97 91 95 88 39 38 75 70 69 68 63 63
90 89 91 93 92 91 91 56 56 61 60 61 56 55 52 48 44 46 58 48 61 72 89 95 97 99 99 98 84 29 61 70 77 69 74 48 43 51 54 74 74 71 70 59
93 92 92 94 93 90 90 61 62 59 94 61 56 54 49 44 50 51 57 64 40 54 61 96 100 100 96 100 86 72 37 30 80 75 45 39 44 49 62 62 64 58 55 56
94 94 94 92 94 91 95 60 62 59 85 100 79 48 50 48 43 41 50 54 61 64 68 100 100 100 63 98 77 86 60 41 52 56 44 43 54 60 62 64 58 58 51 50
98 98 98 98 95 92 80 60 60 59 68 98 89 52 50 46 47 46 50 60 64 77 99 100 100 88 90 94 90 86 48 49 69 78 52 62 65 61 59 62 59 51 49 38
99 98 98 98 98 96 69 61 60 58 62 96 100 64 58 52 51 50 51 56 62 67 83 97 79 59 81 100 95 54 40 34 37 49 56 63 65 56 50 50 39 36 36 34
99 98 97 98 98 80 78 75 80 88 73 100 99 92 64 58 54 59 60 62 68 69 81 97 94 82 67 100 97 50 38 35 36 52 60 65 60 58 50 39 36 39 30 26
98 99 99 98 97 92 84 78 86 87 68 87 100 100 96 63 100 99 72 94 86 80 76 89 95 76 88 97 54 46 40 41 54 54 56 55 47 47 37 33 29 29 25 27
98 99 97 91 92 92 86 95 95 76 77 91 100 100 100 67 96 95 96 86 100 82 100 97 90 100 97 72 54 46 42 51 54 52 48 42 40 36 33 28 26 28 32 33
99 97 99 100 100 96 93 82 89 98 94 91 100 84 100 72 100 100 100 100 100 100 100 93 100 93 61 48 48 48 53 51 51 69 62 51 47 35 30 29 31 35 46 50
99 100 100 99 97 92 97 100 100 100 100 99 99 99 99 84 96 100 100 100 100 100 98 100 100 97 70 59 55 53 52 49 45 44 44 40 30 30 35 52 65 77 78 79
99 99 97 97 97 99 100 100 100 100 95 100 100 99 91 98 82 97 99 100 100 100 91 100 97 68 54 57 59 54 48 45 40 32 29 30 30 36 74 87 91 94 92 96
95 96 100 98 100 100 100 100 100 100 100 100 100 100 100 99 96 100 100 100 100 99 100 91 73 60 51 55 56 50 42 51 49 30 31 41 42 60 95 91 98 99 96 84
98 100 100 100 100 100 100 100 100 100 100 100 100 100 100 100 100 100 100 100 100 98 97 91 81 56 50 53 56 47 46 70 75 65 78 87 94 93 94 100 94 94 92 89
99 100 100 100 100 100 100 100 100 100 100 100 100 100 99 100 100 100 100 99 96 94 96 95 79 74 64 68 60 61 74 88 88 68 82 96 99 94 92 96 100 100 98 97
85 97 100 100 100 100 100 100 100 98 100 100 100 100 100 100 100 99 99 96 94 100 100 92 71 75 72 66 64 71 73 75 77 81 91 93 100 99 95 99 100 99 100 99
99 99 100 100 100 100 100 100 100 96 100 100 100 100 99 97 97 97 98 98 100 100 96 80 76 74 71 67 73 92 84 80 79 84 78 85 95 100 97 95 86 90 99 100

GFSNW_sfc_rhum_006.txt.gz
RH
94 93 93 94 92 89 79 83 69 75 50 41 84 72 54 42 33 33 36 42 43 36 44 56 59 58 53 51 54 44 52 58 75 47 36 35 39 48 53 75 70 90 89 64
96 94 93 94 92 87 83 76 84 76 51 58 88 64 42 36 37 37 39 43 44 44 49 63 62 61 60 50 52 60 51 62 77 62 53 42 42 42 59 66 75 66 82 65
97 95 92 92 93 86 85 82 81 73 82 74 63 61 51 48 42 41 38 39 41 45 52 58 64 65 57 50 48 71 64 66 61 75 57 49 45 41 56 59 83 75 74 50
97 95 90 92 94 86 72 84 69 56 82 73 69 60 49 50 49 42 38 40 44 48 62 65 70 62 60 51 57 59 62 72 69 54 53 49 46 48 48 47 58 66 57 59
96 91 90 93 94 89 72 74 73 72 56 51 61 70 54 47 46 44 47 48 52 52 61 56 67 57 60 59 57 73 80 81 85 71 66 69 59 52 53 49 42 46 67 76
88 91 93 92 94 87 65 70 77 64 87 61 69 72 50 50 48 49 45 56 67 70 68 66 63 64 64 59 62 86 90 93 83 80 89 83 70 58 56 50 57 49 63 72
87 92 93 94 92 91 84 86 84 82 85 87 65 57 50 49 54 61 60 57 63 60 60 54 48 52 65 69 75 67 98 95 95 82 77 64 58 49 47 71 70 69 71 71
91 92 93 93 93 93 89 91 85 79 94 93 60 58 67 65 69 73 70 66 58 59 60 73 63 78 69 78 79 92 78 92 99 79 92 56 50 50 53 55 86 74 76 75
91 92 94 93 91 93 90 95 95 77 89 83 63 70 64 85 85 82 77 66 72 74 94 86 90 73 62 81 84 78 89 88 84 99 70 61 57 57 52 51 80 78 79 81
91 92 93 93 92 92 90 91 90 82 85 75 69 72 72 77 84 89 85 80 77 73 98 99 97 89 66 83 87 93 99 96 94 98 92 81 56 55 55 76 66 85 83 86
92 92 93 94 93 93 88 87 89 78 85 82 84 77 69 79 82 88 78 77 84 99 85 90 97 98 86 85 77 83 84 94 98 98 98 85 57 56 66 69 91 89 87 84
93 93 94 95 95 93 95 84 90 90 83 82 81 79 80 73 60 82 81 63 85 90 95 99 99 98 99 92 88 72 69 74 86 79 81 61 59 62 74 86 90 92 87 81
96 98 99 99 98 94 92 93 96 90 96 82 79 81 71 63 70 66 75 90 80 90 87 99 100 88 98 98 96 86 64 70 89 81 64 67 64 88 88 86 88 87 81 78
99 99 99 99 98 98 95 93 96 91 99 100 88 72 74 62 65 68 65 74 88 92 92 100 100 91 86 95 81 90 69 67 70 80 69 84 84 86 88 84 82 82 75 74
98 97 98 98 99 99 96 97 97 94 81 93 98 80 69 65 68 75 78 79 89 97 99 100 96 98 97 100 99 97 75 66 83 73 64 68 77 87 81 82 79 76 70 44
97 98 97 99 98 99 94 94 96 96 96 95 91 89 84 75 72 78 82 84 93 96 96 100 98 90 87 100 96 82 74 65 60 70 68 78 82 82 74 75 70 59 44 39
98 96 99 98 96 94 92 80 94 98 93 98 100 98 90 86 95 97 96 95 97 94 100 99 99 98 90 100 98 74 69 64 59 72 82 89 85 85 72 47 44 45 41 45
98 96 97 96 98 95 97 98 96 98 96 94 99 99 98 90 100 100 99 100 99 98 98 100 100 98 99 99 89 77 65 62 76 86 78 80 74 60 46 37 39 46 51 54
97 98 94 93 98 100 99 99 98 97 91 98 100 99 94 95 99 100 99 99 100 98 100 100 98 100 99 83 79 78 73 78 84 77 69 73 66 40 38 42 48 53 58 58
98 95 95 99 100 95 97 94 99 99 99 98 100 99 100 95 100 100 100 100 100 100 99 98 100 99 92 87 79 72 70 72 76 84 80 64 57 53 52 52 55 56 60 63
98 100 100 99 92 96 99 99 100 99 100 100 100 100 99 98 99 100 100 100 100 100 95 100 98 97 87 76 82 77 78 72 63 55 59 57 59 61 69 72 71 76 69 69
97 97 95 94 94 98 100 100 99 100 99 99 100 100 99 100 97 100 100 100 100 98 97 100 99 88 82 84 73 59 50 53 58 61 67 62 57 61 68 71 78 89 90 98
94 94 99 94 99 100 100 99 100 100 100 100 100 100 100 99 99 100 100 100 99 99 100 99 96 84 62 53 58 61 64 72 68 57 62 59 59 69 78 74 89 93 96 91
99 100 99 100 99 99 99 99 100 100 100 100 100 100 100 100 100 100 99 99 99 99 99 98 99 97 79 75 72 61 65 76 75 68 72 82 84 87 93 96 95 98 98 94
98 95 99 99 100 100 99 100 100 100 100 100 100 100 99 99 99 100 99 98 98 98 99 99 100 97 90 80 68 70 76 86 80 74 82 80 86 92 94 94 96 98 96 94
93 94 96 99 98 100 100 100 100 99 100 100 100 100 100 99 99 98 98 98 98 99 100 99 97 88 78 78 70 70 77 78 74 81 88 90 92 94 92 97 96 97 97 97
88 99 100 100 99 99 100 100 100 99 100 100 100 98 95 99 99 98 99 99 99 100 100 99 88 77 78 80 84 90 85 83 86 92 85 93 94 98 99 98 86 92 92 94

GFSNW_sfc_rhum_009.txt.gz
RH
97 93 93 94 93 94 81 74 50 69 48 46 89 70 61 54 35 34 41 43 41 41 52 60 61 60 60 56 58 48 58 59 76 50 41 43 44 53 52 70 68 90 88 65
95 92 93 94 92 88 85 75 92 81 46 63 88 59 56 43 39 39 43 45 48 51 60 65 66 65 61 51 53 58 52 64 77 64 54 44 47 52 60 65 78 79 79 60
96 93 93 93 91 90 82 76 87 75 81 66 45 55 52 52 44 44 42 44 46 50 62 65 69 68 62 54 51 72 64 68 59 70 60 54 46 47 58 57 79 72 74 56
97 97 91 93 91 89 77 83 67 64 88 83 81 60 57 52 50 45 41 43 47 52 67 70 75 69 62 53 63 70 61 64 71 63 63 54 51 46 56 60 61 67 59 60
97 90 91 93 92 87 75 85 72 74 57 54 66 77 59 48 49 46 50 48 61 55 61 55 69 59 60 58 68 81 73 84 82 77 71 72 59 48 51 52 50 59 70 80
89 90 91 94 92 80 72 84 86 64 89 72 72 77 54 50 50 58 53 57 63 69 70 68 72 72 68 64 68 86 86 93 70 59 87 76 57 57 53 51 59 59 82 70
88 92 92 95 91 87 77 90 82 84 92 76 63 60 57 56 52 61 65 59 64 59 58 55 52 58 76 78 87 72 97 96 90 81 77 54 44 53 53 57 74 75 77 75
92 94 94 94 93 91 76 89 78 78 95 83 70 66 72 70 75 78 76 71 64 59 55 75 68 77 68 80 88 91 79 93 97 77 82 52 39 58 72 63 66 75 77 76
93 95 95 95 94 94 77 95 90 76 90 86 63 72 69 83 83 83 79 75 74 69 91 84 71 64 60 82 88 86 84 86 78 98 63 51 44 61 55 54 74 80 77 81
93 94 95 95 94 94 77 93 92 77 86 80 71 74 72 77 82 89 85 80 78 69 94 94 96 86 65 82 90 94 98 97 86 99 84 73 53 56 56 70 60 84 79 80
94 94 96 96 95 95 80 93 92 76 90 89 87 73 78 79 81 86 79 78 83 92 80 86 94 98 88 85 76 86 89 94 99 97 97 69 56 60 67 67 84 80 86 84
97 98 99 99 97 96 90 86 94 92 84 85 84 83 82 78 62 84 84 69 78 88 91 96 99 98 99 92 85 75 76 70 82 75 76 59 58 65 66 76 84 89 87 84
98 99 99 99 98 97 89 96 97 84 95 85 81 86 76 67 73 68 73 90 81 86 86 98 100 85 96 97 96 87 73 72 87 78 61 65 63 69 84 86 84 89 83 81
98 98 98 99 98 99 91 97 98 84 92 97 87 79 75 68 72 75 66 81 90 92 94 99 100 89 85 95 82 90 74 74 74 84 71 77 74 80 84 88 88 86 80 78
98 97 99 99 99 99 92 97 98 96 71 91 98 82 75 74 76 81 80 79 87 96 98 100 93 97 98 100 98 97 76 68 83 77 62 71 66 74 86 90 89 83 78 64
99 98 99 99 95 97 79 77 93 98 94 92 93 91 87 85 87 85 85 90 93 94 95 100 98 86 90 99 97 78 71 69 58 58 63 69 77 81 86 83 81 80 53 47
96 99 99 98 91 95 82 67 94 98 91 96 99 98 91 92 95 98 95 97 98 94 99 100 99 99 92 100 99 63 69 68 70 73 84 89 89 89 82 62 58 50 42 47
96 97 98 99 96 96 97 99 98 98 90 93 99 98 98 91 100 100 99 100 98 98 98 100 100 98 100 99 89 78 66 65 71 76 81 78 83 75 52 45 44 48 53 55
96 95 90 92 98 99 99 98 98 97 90 99 99 95 91 96 100 100 100 99 100 98 100 100 99 100 99 93 86 81 78 80 77 90 81 81 66 47 42 47 55 62 64 60
94 92 93 99 100 93 93 92 98 99 100 99 98 99 100 97 100 100 99 100 100 98 99 99 100 99 93 88 84 87 85 77 87 85 83 64 61 70 82 84 81 62 63 68
97 99 100 98 91 95 97 99 98 98 100 99 100 100 100 96 99 100 100 100 100 99 96 100 98 97 88 81 83 75 78 71 68 68 69 73 80 85 87 76 77 77 69 68
96 97 95 93 94 99 98 98 100 98 99 99 100 100 99 100 97 99 100 100 100 98 97 100 94 92 73 70 76 76 76 80 84 84 83 80 82 84 87 82 79 88 86 99
93 93 98 91 99 99 99 99 100 100 100 100 100 100 100 99 98 100 100 100 99 99 100 99 100 75 73 78 82 82 82 90 93 92 89 74 63 71 87 86 90 93 89 86
98 100 99 100 99 99 100 99 100 100 100 100 100 100 100 100 100 100 99 99 99 99 99 98 100 99 98 90 87 79 79 90 85 72 76 87 90 89 92 93 95 97 98 97
96 92 99 99 99 100 100 100 100 100 99 100 100 100 99 99 99 100 99 98 98 98 99 99 100 99 97 80 67 75 83 88 82 76 84 85 88 91 92 94 98 98 98 97
89 92 98 100 98 100 100 100 100 100 100 100 100 100 99 99 99 98 98 97 98 99 100 100 100 86 94 94 88 84 86 84 80 88 92 93 92 93 91 96 97 97 98 97
86 99 100 99 99 100 100 100 100 99 100 99 99 98 96 99 98 98 99 99 100 100 100 100 94 83 94 95 90 91 86 86 83 90 80 92 95 99 99 94 84 92 93 95

GFSNW_sfc_rhum_015.txt.gz
RH
87 88 92 94 95 96 98 76 63 73 62 56 73 61 58 62 49 41 43 38 40 42 52 52 51 50 47 50 51 42 46 56 60 39 37 40 37 42 43 53 50 67 67 41
87 89 94 96 96 91 92 66 90 84 60 69 87 57 54 53 44 44 44 48 48 53 59 58 59 58 55 50 47 51 48 57 64 47 36 37 39 48 49 56 67 69 85 39
88 93 97 96 95 93 82 84 93 84 70 62 51 50 52 51 48 47 45 50 52 58 61 63 67 61 55 58 59 80 59 54 54 53 42 45 46 52 46 45 60 58 62 40
92 98 96 95 94 95 90 78 81 81 91 72 53 45 49 51 53 46 44 48 49 56 66 64 69 60 52 56 71 66 51 57 56 59 58 51 41 45 49 41 45 54 45 46
93 93 94 95 95 94 90 74 74 70 74 70 54 62 58 50 49 53 48 52 57 55 61 52 67 57 52 48 66 62 59 67 63 69 63 60 53 44 44 50 51 45 48 48
94 94 94 96 94 86 82 91 75 61 86 83 67 75 59 52 54 65 57 53 58 62 62 62 66 65 68 62 63 70 66 81 60 56 64 54 59 51 44 47 47 45 55 39
95 96 95 95 93 85 79 86 75 77 85 84 67 67 59 56 54 59 63 58 62 67 64 59 55 64 72 68 72 64 82 72 69 73 73 59 37 46 42 44 45 42 47 48
98 94 94 95 92 87 90 94 73 72 96 74 64 69 74 74 76 77 75 77 68 65 59 76 68 79 74 82 74 65 63 76 82 80 60 46 30 41 56 58 39 46 46 52
93 94 95 96 93 87 92 96 85 74 83 76 56 74 70 82 83 83 86 73 64 62 82 80 80 74 61 58 76 75 69 77 72 78 67 61 42 33 52 44 62 45 56 67
96 96 95 96 93 88 89 96 87 80 82 80 70 72 72 73 78 86 80 72 76 62 83 90 80 65 58 55 75 94 97 94 80 82 80 61 42 45 48 59 52 61 64 65
97 97 96 94 90 86 86 95 93 76 90 90 84 71 75 76 76 83 81 76 81 85 87 91 81 92 76 70 63 85 74 85 86 85 78 65 45 51 66 60 61 60 67 66
97 98 99 93 85 85 90 92 96 86 85 86 86 82 81 78 62 80 85 70 75 77 86 89 96 100 98 85 78 70 70 69 72 62 66 50 48 61 55 58 57 57 67 64
97 97 99 95 84 87 87 95 97 86 95 85 83 86 78 77 81 70 74 79 74 73 74 94 97 95 93 95 86 80 69 62 74 73 52 56 54 51 53 52 59 57 61 61
97 98 98 99 92 93 86 92 96 87 91 100 89 77 83 79 81 73 72 78 84 85 79 97 99 96 80 91 78 87 69 67 70 73 63 58 52 57 56 56 64 68 67 71
99 99 98 93 93 91 92 98 98 96 74 98 97 82 79 83 81 77 74 72 79 86 93 100 96 92 95 94 93 88 70 65 77 77 50 53 50 44 54 64 66 69 75 78
99 99 95 95 96 91 84 84 91 93 91 92 99 88 89 88 86 88 92 88 88 86 82 96 86 84 86 100 91 65 62 59 54 51 54 55 56 54 59 65 70 77 77 65
96 96 95 96 94 94 75 71 90 92 90 96 99 99 89 91 95 96 95 93 95 90 98 99 97 98 85 99 90 72 76 69 65 64 69 71 70 73 76 66 53 54 51 53
95 95 94 94 95 95 95 98 96 95 81 88 95 98 98 90 100 99 97 100 97 98 97 98 99 98 98 99 88 82 75 75 74 79 77 76 59 52 53 52 60 74 87 88
90 92 92 90 96 100 98 95 94 92 82 94 94 93 95 91 100 99 99 96 100 94 100 100 95 100 98 92 85 84 85 89 88 68 56 59 65 69 71 76 91 95 97 98
88 88 89 100 100 92 87 85 90 95 98 98 100 98 100 94 100 100 100 100 100 100 98 98 100 100 80 85 86 89 86 83 81 77 88 91 92 91 95 96 91 86 82 92
96 100 100 98 89 88 94 98 98 95 98 98 100 100 100 95 99 100 100 100 100 99 92 98 100 98 79 89 93 87 87 83 82 82 86 92 96 96 97 96 93 93 90 87
95 96 93 90 91 93 93 99 100 97 98 100 100 100 99 100 95 98 100 100 100 97 96 100 99 89 91 96 97 92 84 82 85 83 88 88 86 88 93 90 90 91 87 94
90 90 95 88 98 98 90 100 100 100 100 100 100 100 100 99 97 100 100 100 100 98 100 98 98 98 99 99 97 96 81 82 78 75 72 70 72 80 91 91 96 95 88 84
95 96 100 96 100 100 100 100 100 100 100 100 100 100 100 100 100 100 100 100 99 100 100 98 99 99 100 99 98 81 70 81 78 72 80 89 92 93 94 95 94 96 93 91
95 92 99 99 100 99 100 100 100 100 99 100 100 100 97 100 100 99 98 97 96 93 92 99 99 99 97 97 98 78 82 95 85 74 85 90 91 93 90 93 94 96 98 95
96 99 99 100 99 100 100 100 100 99 100 100 100 100 100 98 98 97 96 94 94 93 99 99 98 98 100 99 97 90 88 87 83 88 89 90 92 95 94 92 92 94 94 95
92 99 100 100 100 100 100 100 100 99 100 100 99 98 97 97 96 96 96 96 92 99 99 98 98 97 98 98 98 98 87 84 84 86 87 90 93 97 93 95 90 94 94 97

GFSNW_sfc_rhum_021.txt.gz
RH
84 88 91 96 93 92 85 61 56 60 62 48 47 46 29 26 22 26 21 21 16 18 18 20 18 16 16 19 20 21 19 21 36 25 22 21 21 22 23 38 31 35 45 24
80 86 91 96 93 88 58 58 58 72 56 63 77 36 26 21 24 24 24 20 18 17 19 23 19 19 35 31 27 22 26 26 39 31 27 23 23 20 20 21 37 32 57 25
80 85 91 96 93 85 55 45 64 72 62 38 44 39 28 28 24 22 20 18 21 25 26 25 29 29 35 35 28 64 43 26 30 37 27 22 30 22 20 25 40 34 30 17
81 85 92 96 92 84 60 39 42 44 76 52 44 32 28 25 28 25 24 27 23 24 30 30 32 30 37 37 60 35 33 38 28 24 25 23 21 19 21 21 22 34 23 14
84 89 93 96 92 84 66 42 36 35 44 43 38 40 30 23 23 26 30 26 21 21 28 28 28 30 32 33 38 36 32 41 41 46 28 28 28 21 17 16 18 16 15 16
83 85 93 95 91 82 57 52 36 36 59 47 40 38 28 23 26 38 24 22 25 29 32 34 32 30 28 27 37 41 42 56 47 35 33 35 62 40 24 17 16 18 27 18
88 91 89 95 87 84 42 47 41 52 63 47 38 27 25 22 27 34 31 26 30 42 31 32 32 31 31 32 37 34 60 50 51 52 69 80 17 17 15 19 16 13 14 14
89 91 91 92 90 88 58 48 43 37 99 39 30 26 24 23 32 36 38 43 36 34 33 47 55 61 68 49 34 31 32 47 59 89 39 26 18 14 20 23 20 15 18 15
92 91 96 91 90 89 89 71 50 36 58 49 24 25 24 47 48 55 58 44 39 40 52 62 52 50 39 50 47 36 37 51 51 56 86 88 33 24 26 25 29 19 19 21
93 93 96 93 92 89 91 65 68 30 32 26 27 29 30 28 39 46 58 57 55 44 73 99 64 51 34 44 55 88 69 76 80 64 82 47 21 22 28 37 41 29 27 25
90 92 96 95 92 92 92 62 61 33 31 39 38 26 30 28 32 60 52 52 56 63 78 89 62 80 52 45 32 53 54 67 84 68 96 78 21 28 40 41 30 27 30 29
96 96 95 94 93 96 92 77 53 46 40 58 51 56 51 41 28 34 50 35 47 47 56 75 80 96 96 55 62 32 50 42 50 39 43 29 24 25 23 28 34 33 33 30
96 95 94 94 94 94 90 69 56 47 64 58 51 56 53 47 52 52 42 45 36 43 48 75 87 100 73 96 59 47 35 33 46 43 23 22 23 23 25 26 30 29 29 32
95 95 95 95 94 92 92 56 56 45 64 99 72 51 57 52 48 46 49 44 50 49 45 84 97 96 48 77 51 53 38 36 36 39 29 24 24 27 32 34 36 36 35 39
96 94 94 95 93 88 74 57 61 61 47 91 80 58 56 47 46 45 45 49 49 50 76 96 87 62 67 72 63 58 34 32 55 54 38 46 36 37 47 46 49 48 49 48
97 97 96 94 91 86 56 72 61 56 56 74 91 63 62 53 46 46 45 45 44 41 59 87 51 52 58 94 61 44 44 46 46 46 47 48 47 46 44 49 47 45 45 45
96 96 93 90 86 60 57 50 76 83 59 83 94 88 66 60 54 63 56 56 56 48 62 92 70 60 54 95 66 55 52 48 49 49 52 54 49 51 48 52 55 65 65 70
92 90 87 87 88 95 73 73 87 85 65 58 92 98 93 63 90 92 66 84 63 72 77 80 85 71 79 77 60 54 52 50 56 49 47 48 47 50 56 60 71 71 72 72
90 90 88 71 79 84 86 93 84 76 68 74 93 100 99 67 82 82 86 70 98 71 98 85 75 97 88 71 64 60 62 63 60 51 48 52 66 71 67 64 67 70 70 68
94 57 57 88 93 91 87 74 84 72 72 70 100 78 99 68 100 99 91 94 98 98 95 76 97 87 68 64 64 62 59 54 57 72 74 78 76 72 70 66 56 50 58 59
67 82 93 82 92 89 83 86 82 66 89 80 87 90 93 78 91 99 97 99 97 100 88 92 100 94 73 71 71 70 63 58 62 63 68 62 59 59 58 61 68 67 64 71
85 87 78 78 79 76 95 99 94 85 92 97 97 96 84 94 72 85 92 98 95 96 75 98 89 88 83 86 86 76 65 62 61 59 58 58 57 56 60 66 73 91 89 100
69 77 95 73 95 100 100 100 99 98 100 99 99 100 96 87 79 98 90 100 100 73 98 84 90 88 91 86 72 64 59 59 58 52 48 50 60 78 92 87 100 100 78 70
84 100 100 100 100 100 100 100 100 100 100 100 100 100 99 100 100 100 100 100 96 100 100 94 98 97 96 81 70 61 58 77 57 62 70 87 97 100 100 100 100 100 98 77
87 88 100 100 100 100 100 100 100 100 98 100 98 96 83 100 100 100 100 100 99 95 94 100 98 98 97 86 62 56 71 95 71 69 84 100 96 100 89 93 88 87 89 88
90 98 100 100 100 100 100 100 100 98 100 100 96 100 100 100 100 100 100 96 91 100 99 100 97 98 99 89 64 65 66 67 67 70 79 89 97 94 81 79 80 90 86 85
100 100 100 100 100 100 100 100 100 98 100 100 100 100 100 99 100 100 98 100 100 100 100 97 99 97 97 76 81 86 76 70 71 74 77 81 84 81 70 60 53 57 63 78

GFSNW_sfc_rhum_027.txt.gz
RH
77 87 81 82 84 93 98 95 93 71 74 97 89 87 64 55 38 36 32 34 33 27 28 29 24 25 37 25 27 33 54 57 75 43 27 23 26 35 47 70 47 77 81 56
84 87 90 81 84 92 95 94 83 77 62 75 88 59 59 53 46 42 34 38 36 33 32 43 28 48 45 40 38 38 44 45 69 44 36 33 35 29 28 46 70 62 74 57
88 86 87 84 82 88 93 92 93 98 89 47 58 58 56 62 45 42 32 31 34 35 32 26 38 53 48 45 47 62 50 42 49 61 44 37 45 42 37 38 76 71 69 44
84 83 84 88 79 90 96 94 72 74 94 91 57 53 52 58 56 38 32 34 34 36 37 40 36 52 51 49 59 47 45 49 48 45 42 36 34 37 32 31 41 56 47 40
79 83 85 91 80 91 99 91 64 85 84 72 73 57 59 53 43 38 36 38 32 33 38 40 40 45 51 50 55 48 44 67 64 65 40 36 41 36 33 32 31 31 32 34
78 84 86 91 81 90 97 77 77 60 85 76 73 57 53 52 42 40 28 37 40 41 44 43 51 47 46 47 55 57 59 75 75 71 50 44 52 37 35 36 34 33 39 32
80 79 86 89 81 87 95 72 80 86 84 75 61 47 46 48 44 49 34 35 43 51 48 52 53 50 50 50 52 56 72 72 83 84 75 52 37 26 22 30 28 28 27 30
82 82 87 84 81 86 93 87 94 96 100 64 52 47 49 49 44 46 47 54 46 50 58 81 74 84 58 56 44 59 66 80 88 77 83 52 35 34 40 36 39 34 38 36
82 82 85 80 81 86 96 87 94 100 98 72 40 43 48 60 68 83 76 66 75 56 93 86 76 85 62 70 52 55 52 74 77 88 84 74 58 34 31 31 66 44 42 46
85 85 82 86 87 93 92 97 90 99 99 65 52 47 54 51 74 90 85 78 73 72 100 100 84 78 52 77 79 80 89 87 84 96 93 79 49 32 37 48 60 48 44 48
86 82 83 86 84 86 95 94 88 98 98 85 60 40 51 61 71 85 80 86 83 95 92 92 91 97 77 77 67 77 81 94 96 97 99 85 37 37 43 65 52 46 46 50
83 84 86 85 85 89 89 96 77 91 99 96 83 69 76 54 58 75 78 71 77 83 91 98 99 100 98 80 82 54 77 79 86 76 84 61 40 39 43 43 45 52 56 57
90 90 89 87 87 88 86 91 93 98 99 93 90 82 71 61 62 59 75 77 64 70 87 98 100 97 96 95 91 73 55 48 78 60 46 43 40 52 55 56 62 62 58 58
90 89 88 88 88 91 90 95 93 99 99 100 93 63 68 59 59 62 61 66 76 82 94 99 100 100 86 95 78 85 67 50 54 59 49 66 65 65 63 58 58 55 52 53
90 91 91 90 94 95 96 98 96 98 99 100 97 73 64 58 63 63 68 72 80 93 92 100 96 96 90 97 90 88 54 56 76 86 66 72 71 63 59 62 64 62 68 77
92 92 92 93 95 96 97 98 96 95 98 100 100 85 74 65 64 64 69 76 79 86 96 99 90 75 87 96 94 64 61 63 65 72 64 65 65 69 67 74 74 72 75 74
93 92 91 94 97 95 94 96 99 98 97 98 100 98 84 72 80 93 83 75 92 92 95 99 91 85 95 99 93 66 61 62 61 61 63 72 69 81 71 70 71 70 69 72
96 93 95 97 96 99 97 93 96 98 91 93 99 100 98 76 99 99 95 97 96 95 96 96 98 95 98 94 74 64 60 59 62 66 65 73 71 68 68 67 68 72 75 76
95 97 97 96 99 99 98 91 93 94 90 99 100 100 100 84 97 98 96 94 100 95 100 98 93 100 96 79 72 71 71 70 69 69 67 70 73 69 66 66 72 81 85 77
95 93 98 100 99 94 95 88 90 94 96 97 100 98 100 88 100 100 99 100 98 100 98 92 98 99 80 74 74 72 70 66 71 85 88 81 74 72 73 75 71 68 69 77
98 99 100 98 92 89 94 94 94 95 98 98 98 98 100 92 99 100 100 100 100 100 98 97 100 99 88 81 79 79 73 66 68 70 73 69 71 74 75 82 84 92 97 97
92 92 96 94 92 96 97 98 98 98 99 100 100 100 95 99 94 99 99 96 98 95 91 99 99 95 83 81 78 73 71 70 69 67 68 69 68 72 84 93 96 98 95 93
85 89 98 94 99 99 94 99 97 98 100 100 100 100 100 97 93 100 99 99 99 95 93 94 98 88 85 80 75 72 67 67 71 77 78 81 88 93 97 98 97 95 93 93
97 99 98 99 99 99 100 100 100 100 100 100 100 100 100 100 100 100 92 99 97 100 98 90 99 95 92 83 76 71 72 81 86 91 97 97 96 98 97 96 94 92 95 91
98 94 99 99 100 100 100 100 100 100 100 100 100 100 96 100 99 100 99 99 96 95 98 100 99 96 90 81 78 80 86 90 93 94 97 97 94 94 94 95 94 93 94 95
97 97 98 100 99 99 99 100 100 99 100 100 100 99 99 99 100 98 97 96 99 100 100 100 98 97 92 83 83 86 85 89 95 94 92 91 93 90 87 93 92 93 90 93
98 99 100 100 100 100 100 100 100 99 100 100 100 99 99 100 99 99 99 99 99 100 100 100 99 98 97 98 93 90 92 94 94 93 91 90 91 88 88 77 81 83 82 90

GFSNW_sfc_rhum_033.txt.gz
RH
81 82 78 78 78 80 90 92 96 92 80 99 85 82 68 60 48 54 59 59 54 41 37 36 34 32 24 28 47 40 51 54 73 44 41 39 40 44 45 69 50 84 83 56
82 84 79 75 72 78 94 92 89 91 78 90 90 72 63 56 48 55 58 58 54 46 41 38 39 37 46 48 40 48 51 57 71 50 41 38 45 42 49 58 71 67 76 56
87 85 81 75 75 77 97 97 97 96 94 68 70 73 73 74 56 55 58 61 60 57 46 47 49 51 53 54 48 66 50 51 52 61 46 42 50 46 46 52 79 68 71 47
88 86 80 76 77 73 95 96 82 74 96 90 77 62 62 70 64 58 52 60 62 64 63 53 56 60 57 54 58 56 45 49 47 44 38 48 42 42 48 47 51 58 49 53
82 80 79 75 75 78 98 94 93 80 87 69 75 70 66 66 59 63 59 49 50 46 61 48 48 54 58 50 54 53 53 59 65 66 51 47 46 40 40 44 43 48 46 45
84 79 76 75 75 79 98 92 87 94 75 73 78 69 64 57 56 56 45 48 53 64 54 47 42 51 49 44 50 59 59 72 73 64 60 51 64 49 41 38 41 40 46 38
80 79 76 78 78 78 94 86 92 99 88 80 70 61 58 55 52 53 44 38 54 51 53 52 51 55 62 70 75 59 70 71 81 80 67 69 48 41 37 43 46 42 42 43
80 76 76 78 79 77 96 95 93 97 100 69 69 69 62 52 47 50 41 48 36 57 62 73 72 82 74 64 68 76 67 82 86 75 75 57 43 41 42 43 47 46 48 50
76 76 79 80 79 75 93 96 89 96 99 88 59 66 60 65 60 61 66 47 72 70 88 85 78 84 74 75 69 62 66 77 79 89 70 69 55 43 38 42 68 47 52 53
76 79 82 84 81 77 92 95 91 92 97 91 72 76 70 54 61 65 77 80 81 75 97 92 84 80 62 73 75 73 88 92 85 97 83 69 47 43 35 49 52 55 54 57
80 79 81 80 84 87 92 94 95 94 94 92 87 91 71 56 54 69 74 81 87 96 87 88 89 90 81 78 68 69 74 89 95 94 83 65 50 48 41 50 66 58 58 58
83 84 84 84 84 87 89 98 96 94 97 95 86 83 78 82 48 65 92 64 80 83 92 99 96 93 95 84 88 72 63 70 80 72 73 56 56 46 55 60 57 59 62 71
82 82 84 85 84 84 92 97 98 96 97 93 97 88 74 74 78 67 82 87 78 84 87 97 97 85 93 88 89 81 68 70 73 67 68 65 77 80 73 73 75 76 78 78
83 83 84 85 83 86 88 95 95 91 94 100 90 84 88 77 76 70 66 67 92 92 95 100 99 90 81 89 74 82 71 68 74 85 88 80 76 77 72 71 72 73 71 69
85 84 85 85 83 86 89 93 94 94 92 100 96 88 87 88 85 68 69 82 83 86 94 96 92 96 92 98 89 90 69 68 78 83 76 69 80 77 73 75 78 76 75 77
84 84 83 88 89 85 91 97 93 94 97 99 99 89 92 93 88 80 64 76 90 89 88 100 96 87 84 91 92 64 66 65 59 62 73 82 81 82 79 83 83 79 76 72
87 90 92 88 87 90 95 92 92 88 95 99 99 99 88 93 97 98 97 95 98 96 97 98 94 94 78 95 86 65 79 80 79 76 76 88 84 91 84 84 84 81 80 80
88 87 89 88 84 88 94 99 90 84 93 98 100 98 99 92 99 100 99 99 97 98 99 98 98 99 97 83 82 84 79 78 79 83 78 78 81 81 83 79 81 87 92 91
92 91 91 94 94 97 98 99 96 99 97 100 100 99 100 95 100 100 99 98 100 98 100 100 98 100 94 89 86 85 80 82 88 81 80 80 83 82 81 82 83 88 90 90
94 92 93 100 99 93 92 95 97 100 100 98 100 99 100 99 100 100 99 100 100 100 100 97 99 99 90 92 85 85 84 80 79 93 96 90 88 84 84 82 78 79 86 93
96 99 100 99 96 94 98 100 100 99 100 99 99 100 100 96 99 100 99 100 99 99 99 98 100 99 94 94 94 89 83 81 87 82 82 80 77 86 88 88 87 89 89 92
94 96 97 97 94 98 99 100 99 98 98 100 100 100 99 100 95 99 99 99 95 99 94 96 99 98 98 96 96 94 87 83 80 74 78 79 76 78 84 88 92 93 92 94
96 94 96 96 100 100 99 99 100 99 100 100 100 100 100 97 96 99 99 98 98 97 97 97 98 98 93 87 83 84 80 79 79 80 79 80 84 85 89 96 96 95 90 85
97 99 98 99 99 99 99 99 99 100 100 100 100 100 100 100 99 100 96 100 96 98 97 95 99 98 92 88 87 87 92 94 92 90 89 90 92 97 96 95 92 89 90 86
99 95 99 99 100 99 99 100 100 99 99 100 100 99 97 99 99 99 99 98 98 99 99 100 100 93 89 91 92 93 94 94 93 91 93 96 91 90 92 93 91 88 90 91
95 98 98 99 99 99 99 99 100 99 100 100 99 99 97 99 100 99 98 97 99 99 99 100 97 95 95 96 93 94 92 95 97 96 92 92 93 88 91 93 92 89 87 88
93 99 100 99 99 99 99 99 99 99 100 100 99 98 99 99 98 97 98 98 99 99 99 100 99 98 99 99 98 98 98 96 90 92 93 89 89 88 86 89 86 76 84 91